Location: Mexico
(19.4000°N, 99.1500°W)
Time: 04:19:20
(UTC-06:00)

ISS - Pass Details

Date: 08 April 2020
Orbit: 417 x 419 km, 51.6° (Epoch: 31 May)

Event Time Altitude Azimuth Distance (km) Brightness Sun altitude
Rises 20:03:58 0° 326° (NNW) 2,350 0.8 -17.3°
Reaches altitude 10° 20:06:06 10° 331° (NNW) 1,485 -0.4 -17.8°
Maximum altitude 20:09:22 55° 50° (NE) 500 -3.7 -18.5°
Enters shadow 20:09:26 55° 56° (ENE) 501 -3.7 -18.5°
